Temp
30 28 27 26 26 27 27 27 27 28 28 27 27 25 25 24 24 27 27 27 27 25 25 26 26 26 27 25 24 23 24 23 23 23 22 22 22 22 22 22 21 21 22 21 19 19 18 18 17 17 17 17 17 16 16 16 16 16 16 16 15 15 15 15 15 15 15 15 15 15 15 15 15 15 15 15 15 15 15 15 15 15 15 15 15 16
29 27 26 26 26 26 26 26 27 28 28 27 26 25 24 24 25 27 27 26 27 25 25 26 26 26 26 26 24 23 23 23 23 23 22 22 22 22 22 22 21 21 22 20 19 18 18 18 17 17 17 17 17 17 16 16 16 16 15 15 15 15 15 15 15 15 15 14 14 14 14 14 15 15 15 15 15 15 15 14 15 15 15 15 15 15
27 26 25 26 25 26 26 26 27 28 28 27 26 25 23 25 25 26 26 26 26 25 24 26 25 24 25 25 24 24 23 23 23 23 22 22 22 22 22 22 21 21 21 20 19 19 18 18 18 17 17 17 17 17 17 16 16 16 16 15 15 15 15 15 14 14 14 14 14 14 14 14 14 14 14 14 14 14 14 14 15 15 15 15 15 15
24 25 26 25 25 26 27 27 27 28 27 27 26 24 23 25 24 23 25 26 26 25 25 25 25 24 25 25 24 24 24 24 23 23 23 22 22 22 22 22 21 21 20 19 19 19 19 18 18 18 17 17 17 17 17 17 16 16 16 15 15 15 15 15 14 14 14 14 14 14 14 14 14 14 14 14 14 14 14 14 14 14 14 15 15 15
24 25 26 26 26 27 27 27 27 27 26 26 27 25 24 25 25 24 25 25 25 25 25 24 23 23 25 24 24 24 24 24 23 22 22 22 22 22 22 21 21 21 21 20 19 19 19 19 18 18 17 17 17 17 17 17 16 16 16 15 15 15 15 15 14 14 14 14 14 14 14 14 14 14 14 14 14 14 14 14 14 14 14 14 15 15
25 26 26 26 27 27 27 27 26 26 25 25 26 26 25 26 25 25 25 25 23 22 24 24 21 21 24 24 23 23 23 23 23 23 22 22 22 22 22 21 21 21 21 21 20 20 20 19 18 18 18 17 17 17 17 17 16 16 16 16 15 15 15 15 14 14 14 14 14 14 14 14 14 14 14 14 13 13 13 14 14 14 14 14 15 15
26 26 26 27 27 27 27 26 25 26 24 23 24 26 26 26 26 25 25 24 21 21 24 25 21 20 22 23 23 24 23 23 23 23 23 23 22 22 22 22 21 21 21 21 21 21 20 19 19 18 18 18 18 17 17 16 16 16 16 16 15 15 15 15 14 14 14 14 14 14 14 14 14 14 13 13 13 13 13 13 13 14 14 14 14 15
26 26 26 27 27 27 26 25 25 26 24 23 24 26 26 26 26 25 25 23 23 23 23 24 23 21 21 21 23 24 23 23 23 23 23 23 22 22 22 22 22 22 21 20 20 21 20 19 19 19 18 18 18 18 17 16 16 16 16 15 15 15 15 15 14 14 14 14 14 14 14 14 14 13 13 13 13 13 13 13 13 13 14 14 14 14
25 26 25 26 26 26 25 24 25 25 25 24 25 25 26 26 26 26 25 24 24 23 21 22 23 21 21 22 23 24 23 24 24 23 23 23 22 22 22 23 23 22 21 21 21 21 20 20 19 19 19 18 18 17 17 17 16 16 16 15 15 15 15 15 14 14 14 14 14 14 14 14 13 13 13 13 13 13 13 13 13 13 14 14 14 14
25 24 25 26 25 25 25 25 25 25 25 25 24 25 26 26 26 26 25 24 23 22 20 21 22 21 21 22 23 23 23 23 24 24 23 23 23 23 22 22 23 22 21 21 22 21 21 20 19 19 19 18 18 17 17 17 17 16 16 15 15 15 15 15 14 14 14 14 14 14 13 14 13 13 13 13 13 13 13 13 13 13 14 14 14 14
25 24 25 25 24 24 25 25 25 24 25 24 24 25 25 26 26 25 25 24 22 21 21 21 22 21 20 21 23 23 22 23 23 23 23 23 23 23 23 23 23 22 22 22 22 22 21 20 19 19 19 18 18 17 16 17 17 17 16 16 16 15 15 15 14 14 14 14 14 14 13 13 13 13 13 13 13 13 13 13 13 13 14 14 14 14
25 25 25 24 24 25 25 25 25 25 25 25 26 25 24 23 24 23 23 22 21 20 21 21 22 21 20 21 23 23 23 23 23 23 22 23 23 23 24 24 23 23 22 22 22 22 21 20 19 19 18 18 17 17 17 17 17 17 17 16 16 16 15 15 15 14 14 14 14 14 13 13 13 13 13 13 13 13 13 13 13 13 14 14 14 14
25 25 25 25 24 25 25 25 25 26 26 26 26 24 21 21 21 21 21 21 21 20 21 22 22 21 21 22 24 24 23 23 23 23 23 23 23 23 24 24 23 23 22 22 22 22 21 20 19 19 18 18 18 17 17 17 17 17 17 16 16 16 15 15 15 14 14 14 14 14 13 13 13 13 13 13 13 13 13 13 13 13 13 14 14 14
23 24 25 25 24 25 25 24 23 24 25 25 24 22 21 20 20 20 20 20 21 21 22 22 22 21 21 22 24 24 23 23 23 23 23 23 23 23 23 24 23 23 22 22 22 22 21 21 20 19 19 18 18 18 17 17 17 17 17 16 16 16 16 15 15 15 14 14 14 14 13 13 13 13 13 13 13 13 13 13 13 13 13 13 14 14
21 22 23 24 24 24 25 24 23 23 24 24 24 24 22 21 20 20 20 20 20 20 21 22 21 21 21 22 24 24 23 23 23 23 23 23 23 23 23 23 24 23 23 23 22 22 21 21 20 19 19 19 19 18 18 17 17 17 17 17 16 16 16 15 15 15 15 14 14 14 13 13 13 13 13 13 13 13 13 13 13 13 13 13 14 14
21 21 23 23 23 24 24 24 24 23 23 24 25 24 22 22 21 20 20 20 20 20 21 21 21 22 22 23 24 24 24 24 23 23 23 23 23 23 23 23 24 24 24 23 22 22 22 21 20 20 19 19 19 18 18 18 18 17 17 17 16 16 16 15 15 15 15 14 14 14 13 13 13 13 13 13 12 13 13 13 13 13 13 13 13 13
21 21 23 24 23 24 23 23 24 23 22 23 24 22 22 23 23 21 20 20 20 20 21 21 21 23 23 23 24 24 24 24 24 24 24 23 23 23 23 24 24 24 23 23 23 22 22 21 20 20 20 19 19 18 18 18 18 17 17 17 16 16 16 15 15 15 15 14 14 14 13 13 13 13 13 13 13 13 13 12 12 13 13 13 13 13
21 21 23 24 23 23 23 23 23 24 23 23 22 22 23 23 22 21 20 20 20 20 20 21 20 21 21 21 23 24 24 24 24 24 24 24 23 23 23 23 23 23 23 23 23 23 22 21 21 20 20 19 19 18 18 18 18 17 17 17 17 16 16 15 15 15 15 14 14 14 13 13 13 13 13 13 13 13 12 13 12 12 12 12 13 13
22 21 22 24 23 23 23 23 22 23 24 23 22 23 23 21 21 21 20 20 20 20 20 20 20 21 20 21 23 24 23 24 24 24 24 24 24 24 24 23 23 23 22 22 22 22 22 22 21 20 20 19 19 18 18 18 18 17 16 16 16 16 16 15 15 15 15 14 14 14 13 13 13 13 13 13 13 12 12 12 12 12 12 12 12 13
23 21 21 23 24 23 24 23 22 22 23 23 23 24 23 21 21 21 21 20 20 20 20 20 20 20 21 22 23 23 23 23 23 23 24 24 24 24 23 23 23 22 22 22 22 23 23 22 21 20 19 19 19 19 18 18 17 17 16 16 16 16 16 15 15 15 15 14 14 14 14 13 13 13 13 13 13 12 12 11 11 12 12 12 12 13
23 22 20 22 24 23 22 22 22 22 22 23 22 22 22 22 21 21 21 21 20 20 20 20 20 20 22 23 23 23 23 23 23 23 23 23 24 24 23 23 22 22 22 22 22 23 23 22 21 20 19 19 19 19 18 18 17 17 16 16 16 16 16 15 15 15 15 14 14 14 14 13 13 13 13 13 13 12 11 11 12 12 12 12 13 13
23 22 21 21 22 21 21 22 21 21 22 22 22 22 21 21 21 20 20 20 20 20 20 20 20 20 22 23 23 23 23 23 23 22 22 23 23 23 23 22 22 22 22 21 21 22 22 21 21 20 19 19 19 19 18 17 17 17 17 17 17 16 16 16 15 15 15 14 14 14 14 13 13 13 13 13 13 12 11 11 11 12 12 13 13 13
22 23 22 21 21 21 21 21 21 20 21 22 22 22 22 22 21 20 20 20 20 20 20 20 20 20 22 23 23 22 22 22 23 22 22 23 23 23 23 23 22 21 21 21 21 22 22 21 20 20 20 19 19 19 18 18 17 17 17 17 17 16 16 16 15 15 15 14 14 14 14 13 13 13 13 13 13 12 12 11 11 12 12 13 13 13
21 22 21 20 21 22 21 21 20 20 21 21 22 22 21 21 20 20 20 20 20 20 20 20 20 21 22 23 22 22 22 23 23 23 22 22 22 22 22 22 22 21 20 20 20 21 21 20 20 20 20 20 20 19 19 18 18 17 17 17 17 16 16 16 15 15 15 14 14 14 14 13 13 13 13 13 13 12 12 11 11 12 12 12 13 13
21 22 21 20 20 20 20 20 20 20 21 21 21 21 20 20 20 20 20 20 20 20 20 20 20 21 22 23 23 23 23 23 23 23 22 22 22 22 22 21 21 21 21 21 21 21 21 21 21 21 21 21 21 20 19 18 18 18 17 17 17 16 16 16 15 15 15 14 14 14 14 13 13 13 13 13 13 12 12 11 11 12 12 12 12 13
22 22 21 20 20 20 20 20 20 20 21 21 21 20 20 20 19 19 20 20 20 20 20 20 20 21 22 23 23 23 23 22 23 23 22 22 22 22 21 21 21 21 21 21 21 21 21 21 21 21 21 21 21 20 19 18 18 18 17 17 17 16 16 16 15 15 15 14 14 14 14 13 13 13 13 13 13 12 12 11 11 12 12 12 12 12
22 22 21 21 20 20 20 20 20 21 21 20 20 20 20 20 19 19 19 20 20 19 20 20 20 20 21 22 22 22 22 22 22 22 22 22 22 22 22 22 21 22 22 21 21 21 21 21 21 21 20 20 20 20 19 19 18 18 18 17 16 16 16 15 15 15 15 14 14 14 14 13 13 13 13 13 12 12 12 11 11 12 12 12 12 12
22 21 21 21 21 21 21 21 21 20 20 20 20 19 19 19 19 18 18 19 19 19 20 20 20 20 20 22 22 22 22 22 22 21 21 22 21 22 22 22 22 22 22 22 22 22 21 21 21 20 20 19 19 19 19 19 18 18 18 17 16 16 16 15 15 15 15 14 14 14 14 13 13 13 13 12 12 12 12 11 12 12 12 12 12 11
22 21 21 21 21 21 21 21 20 20 20 20 20 19 19 18 18 17 17 19 19 19 20 20 20 19 20 21 22 22 21 21 21 21 21 21 21 22 22 22 23 23 23 23 22 22 21 21 21 20 19 19 19 18 18 18 18 18 17 17 17 16 16 15 15 15 15 15 14 14 14 13 13 13 13 12 12 12 11 12 12 12 12 12 12 11
22 21 21 21 21 21 21 20 20 20 20 20 20 20 20 19 17 16 16 18 18 18 19 20 19 19 20 21 22 22 21 21 21 21 21 21 22 22 22 22 22 23 23 23 22 22 21 21 21 20 19 19 18 18 18 18 18 18 17 17 17 16 16 15 15 15 15 15 15 14 14 14 13 13 13 13 12 11 11 12 12 12 12 12 12 11
21 20 20 21 21 21 20 20 20 20 20 20 20 20 19 17 16 14 14 15 16 17 18 18 19 20 21 22 21 21 21 21 21 21 21 21 21 21 22 22 22 22 22 22 22 22 21 21 21 20 20 19 18 18 18 17 17 17 17 17 17 16 16 16 15 15 15 15 15 14 14 14 14 13 13 13 13 12 11 11 11 12 12 12 12 11
21 21 20 21 21 20 21 21 21 21 21 20 19 19 18 17 17 16 15 15 16 17 17 17 18 21 22 21 21 21 21 21 21 21 21 21 21 21 21 21 22 22 22 22 22 22 21 22 21 20 20 19 18 18 17 17 17 17 17 17 17 17 16 16 15 15 15 15 15 14 14 14 14 14 13 13 13 12 12 11 11 12 12 12 12 12
22 22 21 21 20 20 21 21 21 21 20 19 20 20 19 19 18 18 17 17 17 17 18 18 20 22 22 21 21 21 21 21 21 21 21 21 21 21 21 21 21 21 21 21 21 21 21 21 21 20 19 18 18 17 17 17 17 17 17 17 17 16 16 15 15 15 15 15 15 14 14 14 14 14 13 13 13 12 12 11 11 12 12 12 12 12
22 22 22 21 20 20 21 21 21 20 20 20 21 22 21 20 20 19 19 19 19 19 20 21 21 22 22 21 21 21 21 21 21 21 21 20 20 20 21 21 21 21 21 21 21 21 21 21 20 19 18 17 17 16 16 16 16 16 16 16 16 16 16 15 15 15 15 15 15 14 14 14 14 13 13 13 12 12 12 11 11 11 12 12 12 12
21 21 22 21 20 20 21 21 20 20 20 21 22 21 20 20 20 20 20 21 21 20 20 21 21 22 22 22 21 21 21 21 21 21 21 21 20 20 20 20 21 21 21 21 21 21 21 20 19 19 18 17 16 16 15 15 15 15 16 16 16 16 15 15 15 15 15 15 15 14 14 14 14 13 13 12 12 12 12 11 11 11 11 12 12 12
21 21 21 21 21 21 20 20 20 20 22 22 20 19 19 19 19 19 20 21 22 21 21 21 21 22 22 21 21 21 21 21 21 21 21 21 20 20 20 20 20 20 20 20 20 20 20 19 18 18 17 16 16 16 16 15 15 15 16 16 16 15 15 15 15 15 15 14 15 14 14 14 13 13 13 12 12 12 12 11 11 11 11 12 12 12
22 21 21 20 20 20 20 20 20 21 21 21 20 20 20 21 21 20 20 21 22 22 21 21 22 22 21 21 21 21 21 21 21 21 21 21 20 20 20 20 20 20 20 20 19 19 18 17 17 17 16 16 16 16 16 15 15 15 16 15 15 15 15 15 15 15 15 14 14 14 14 13 13 13 12 12 12 12 12 12 12 12 11 12 12 12
21 22 21 20 20 20 20 20 20 20 20 21 21 22 21 21 21 21 20 21 22 22 22 22 21 21 21 21 21 21 21 20 21 22 21 21 21 20 20 21 20 20 20 19 19 19 18 17 17 16 16 16 16 16 15 15 15 16 16 15 15 15 15 15 15 15 15 14 14 14 14 13 13 13 12 12 12 12 12 12 12 12 11 11 11 12
21 21 21 21 20 20 20 20 20 20 20 22 22 22 21 20 21 21 20 20 22 22 22 22 21 21 21 21 21 21 20 20 22 22 21 20 21 21 20 21 21 20 20 19 18 18 18 17 17 16 16 16 16 16 15 15 15 15 16 16 15 15 15 15 15 15 14 14 14 14 14 13 13 13 12 12 12 12 12 12 12 12 12 11 11 12
20 20 21 20 20 20 20 20 20 20 21 22 22 21 21 20 20 20 19 20 22 22 22 22 21 21 21 21 21 21 21 21 21 21 20 20 21 21 21 20 20 20 20 19 18 17 17 16 16 17 17 17 17 16 15 15 15 15 16 15 15 15 15 15 14 14 14 14 14 14 13 13 13 13 12 12 12 12 12 12 12 12 12 12 12 12
20 20 20 20 20 20 20 20 20 21 22 23 22 21 20 20 19 19 20 21 22 22 22 22 21 21 21 21 21 21 21 22 21 21 20 20 21 21 21 20 20 20 20 19 18 17 16 16 16 17 17 17 17 16 15 15 16 16 16 15 15 15 15 14 14 14 14 14 14 13 13 13 13 12 12 12 12 13 13 12 12 12 12 12 12 12
20 20 20 20 20 20 21 20 20 21 22 22 21 20 20 19 20 20 21 22 22 22 22 21 21 21 21 21 21 21 21 21 21 20 20 20 20 21 21 21 20 20 20 19 18 16 17 17 17 17 17 17 16 16 15 15 15 16 16 15 15 15 15 14 14 14 14 14 14 14 13 13 13 12 12 12 12 12 12 12 12 12 12 12 12 12
21 20 20 20 21 20 20 20 19 21 21 20 20 19 19 20 22 23 22 22 22 22 22 21 21 22 21 21 21 21 21 21 21 21 21 21 21 21 21 21 20 20 20 20 19 17 17 17 17 17 17 17 16 16 15 15 15 16 16 15 15 15 14 14 14 14 14 14 14 13 13 13 12 12 12 12 12 12 12 12 12 12 12 12 12 12
22 21 21 21 22 21 20 20 21 22 21 20 21 21 20 21 23 23 22 22 22 22 22 22 22 22 21 21 21 21 21 21 21 21 21 21 21 21 21 21 20 20 20 20 19 18 17 17 18 18 17 17 16 16 16 15 15 16 16 15 15 15 14 14 14 14 14 14 13 13 13 13 12 12 12 12 12 12 12 12 12 12 12 12 12 13
22 22 21 22 22 22 22 22 23 23 22 21 22 23 23 22 23 22 22 22 22 22 22 22 22 22 21 21 21 21 20 21 20 21 21 20 21 21 21 21 20 20 20 19 19 18 17 17 17 17 17 17 16 15 15 15 15 15 15 15 15 15 14 14 14 14 14 13 13 13 13 13 12 12 12 12 12 12 12 12 12 12 12 12 13 13
22 21 20 21 23 22 22 23 23 22 22 22 22 22 23 22 22 21 21 22 22 22 22 22 22 21 21 20 20 20 21 21 20 21 21 20 20 21 21 20 20 20 19 19 18 18 17 17 17 17 17 17 16 15 15 15 15 15 15 15 15 15 15 14 14 14 13 13 13 13 13 13 12 12 12 12 12 12 12 12 12 12 13 13 13 13
22 20 20 22 22 21 21 23 23 22 22 22 22 22 22 22 22 21 21 21 22 22 22 21 21 21 20 20 20 20 21 21 20 21 21 20 20 21 21 20 20 19 19 19 18 17 17 17 17 17 17 17 16 16 15 15 15 15 15 16 15 15 15 14 14 14 14 13 13 13 13 13 13 12 12 12 12 12 12 12 12 12 13 13 13 13
21 20 20 22 21 21 22 23 23 22 22 22 22 22 22 22 22 22 21 21 21 21 21 21 21 20 20 20 20 20 20 21 21 20 20 20 20 21 20 20 20 19 19 18 17 17 17 17 17 17 17 17 17 16 16 15 15 15 15 15 15 15 15 14 14 14 14 14 13 13 13 13 12 12 13 13 12 12 12 12 12 12 13 12 12 13
20 20 21 22 21 22 22 23 23 22 22 22 21 21 22 22 22 22 21 21 20 20 21 21 21 20 20 20 20 20 20 20 21 20 20 20 20 20 20 19 19 18 18 18 17 17 17 17 17 17 17 17 17 17 16 15 15 15 15 15 15 15 15 14 14 14 14 14 14 13 13 13 13 13 13 13 13 12 12 12 11 12 12 11 11 11
19 21 22 21 20 21 22 23 23 22 22 23 22 22 22 22 22 21 21 20 20 20 20 21 21 20 20 20 20 20 20 20 20 20 20 19 20 20 19 19 18 18 18 18 17 17 17 17 16 16 16 17 17 16 16 16 15 15 15 15 15 15 15 14 14 14 14 14 14 14 13 13 13 13 13 13 13 12 12 11 10 10 11 10 10 10
20 22 22 21 21 22 23 24 23 22 22 23 23 22 22 21 21 21 21 21 21 21 21 21 21 21 21 21 20 20 20 20 20 20 19 19 19 19 18 18 18 18 18 17 17 17 17 17 17 16 16 16 16 16 16 16 16 15 15 15 15 15 15 14 14 14 14 14 14 14 14 13 13 13 13 13 13 13 12 12 11 10 10 9 9 9
Height
790 801 808 809 811 809 808 808 807 803 804 809 811 814 818 821 820 814 814 815 814 823 824 820 822 819 818 824 829 829 828 829 831 833 835 836 838 840 841 843 845 847 848 851 855 857 858 859 860 861 861 861 862 863 863 863 862 861 861 860 860 859 859 858 857 856 855 854 853 851 850 849 847 846 845 844 844 843 842 842 841 840 839 838 838 837
794 808 815 813 813 812 811 811 808 806 807 810 813 816 816 817 817 813 816 817 816 824 825 820 823 823 820 822 827 830 830 830 831 833 835 835 836 838 840 842 844 846 847 851 855 856 858 859 859 860 860 860 861 861 862 861 861 861 860 860 860 859 859 858 858 857 856 855 853 852 850 849 848 846 845 844 844 843 842 842 841 840 839 838 838 837
804 813 817 815 814 813 812 810 808 808 809 810 811 816 817 815 816 818 818 818 819 826 827 822 825 827 824 823 825 828 829 829 830 831 833 834 835 837 839 841 842 844 846 850 853 854 856 857 858 859 859 859 859 860 860 860 860 860 860 860 860 860 859 859 858 857 856 855 854 853 851 850 848 847 846 845 844 843 842 841 840 840 839 838 837 836
815 817 815 814 814 812 812 810 809 808 808 810 810 813 816 815 820 823 821 820 820 823 825 824 825 826 824 823 824 825 824 826 828 829 831 831 833 835 836 839 841 843 845 848 849 851 853 854 856 857 857 858 858 858 858 859 860 859 860 860 860 860 859 859 858 857 856 855 854 853 851 849 848 847 846 844 844 843 842 841 840 839 839 838 837 836
818 818 814 814 813 810 811 811 811 810 810 812 812 812 816 818 821 820 819 822 822 823 824 827 832 827 821 825 828 825 822 823 826 827 829 830 830 832 834 837 839 840 842 845 846 848 850 852 854 855 856 857 857 857 857 858 859 859 859 860 859 859 859 859 858 857 856 855 853 852 850 849 848 846 845 844 844 843 842 841 840 839 838 838 837 836
818 817 813 813 812 810 812 814 816 815 811 814 817 815 816 818 819 820 821 823 829 832 825 827 843 837 822 826 830 826 826 825 824 826 828 828 829 831 833 836 837 837 838 840 842 844 847 849 851 853 855 856 855 856 856 857 858 858 859 859 859 859 859 858 857 856 856 854 853 852 850 849 847 846 845 845 844 843 842 841 840 839 838 837 836 835
818 816 813 814 813 811 813 816 819 817 813 819 821 817 817 817 818 821 821 823 830 834 823 823 841 840 828 830 827 823 828 827 823 825 825 825 827 829 831 833 833 834 836 838 840 841 844 846 848 851 852 853 854 854 855 856 856 857 858 858 858 858 858 858 857 856 855 854 853 852 850 849 848 847 846 845 844 843 842 841 839 838 837 836 836 835
819 816 816 815 813 813 816 821 822 819 818 823 821 818 818 817 818 818 819 822 822 824 826 823 831 838 835 833 826 820 825 826 823 825 824 823 826 827 828 829 829 832 835 837 838 839 841 843 845 848 850 851 852 853 854 855 855 856 857 857 857 858 858 857 857 856 855 854 853 852 851 849 848 847 846 845 843 842 841 840 839 837 836 836 835 834
821 821 822 818 816 818 822 825 824 820 821 822 820 819 818 818 818 816 817 818 816 825 834 826 828 839 834 825 822 821 822 824 823 823 824 824 824 825 826 826 827 830 832 834 835 836 838 841 843 845 848 850 851 852 853 853 854 855 855 856 856 857 857 857 856 856 855 854 853 852 851 849 848 847 846 844 843 842 841 839 838 837 835 834 834 833
823 825 823 820 822 824 825 824 822 823 822 820 820 819 818 818 816 816 817 815 820 833 838 828 829 841 837 821 819 823 824 823 821 821 822 823 822 823 825 826 827 828 830 832 832 834 836 839 841 843 846 848 849 850 851 852 853 854 854 855 855 856 856 856 856 856 855 854 853 852 851 849 848 846 845 844 842 841 840 839 837 836 834 833 833 832
824 823 821 823 827 826 823 822 822 823 821 820 821 817 816 816 813 817 816 815 829 839 836 831 831 840 844 828 817 824 827 824 823 823 822 822 821 822 824 824 825 827 828 830 831 832 835 838 840 842 844 846 848 849 850 851 851 852 853 853 854 855 855 855 855 855 854 853 852 851 850 849 847 846 845 844 842 841 840 838 836 835 834 833 832 831
823 824 824 826 827 823 822 822 820 819 819 819 818 816 821 821 819 822 819 823 840 844 836 831 829 838 847 834 819 822 823 820 823 825 825 824 822 822 822 822 823 825 826 828 829 830 833 836 839 840 842 844 846 847 848 849 850 851 851 852 853 853 854 854 854 854 854 853 852 851 850 849 847 846 845 843 842 840 839 837 836 834 833 832 831 830
826 827 826 826 825 823 823 822 818 816 815 816 815 820 831 833 834 839 834 834 840 838 831 829 832 837 836 827 820 821 820 819 821 823 824 824 823 822 822 822 823 824 826 826 827 829 831 834 837 838 840 842 843 845 846 847 848 849 850 850 851 852 853 853 853 853 853 852 851 850 849 848 847 846 844 843 841 840 839 837 836 834 832 831 830 829
833 831 826 826 827 824 824 826 829 825 819 821 822 827 837 841 851 856 846 840 841 835 826 825 834 835 828 824 821 820 821 821 820 821 822 822 823 824 822 822 822 823 824 824 825 827 829 832 834 836 838 839 841 843 844 845 846 847 848 849 850 851 851 852 852 852 852 851 850 850 849 848 847 845 844 842 841 840 839 837 835 834 832 831 830 829
840 842 834 833 833 828 828 830 834 832 826 826 824 824 831 838 851 857 849 845 845 838 828 828 837 836 832 830 821 817 820 820 820 821 821 822 822 823 823 821 822 821 822 822 823 826 828 830 832 834 836 837 839 841 842 843 844 845 846 847 848 849 850 851 851 851 851 850 849 849 848 847 846 845 843 842 841 839 838 837 835 833 832 831 830 828
841 845 836 834 833 830 832 832 830 832 833 828 820 825 834 834 838 847 851 849 847 845 837 834 834 825 823 824 816 817 821 819 821 822 821 823 822 822 823 821 821 821 821 822 823 824 827 829 831 832 834 835 837 839 840 841 842 843 844 845 846 848 848 849 849 850 849 849 848 848 847 846 845 844 843 841 840 839 838 836 834 833 832 830 829 828
841 844 836 833 834 832 834 833 829 834 838 830 826 834 836 829 831 843 852 850 849 853 842 833 832 820 819 825 818 818 821 818 821 822 820 823 823 823 823 821 821 821 821 822 822 823 825 827 829 831 832 834 835 837 838 839 840 841 843 844 845 846 847 848 848 848 848 848 847 846 846 845 844 843 842 841 839 838 837 835 834 832 831 829 828 828
840 843 837 834 837 835 833 834 831 830 832 831 835 837 832 831 833 838 849 850 849 851 841 834 837 829 830 835 823 817 822 820 819 819 819 821 821 822 822 821 822 821 821 822 822 823 824 826 828 829 830 832 833 835 836 837 839 839 841 842 843 845 845 846 847 847 847 846 846 845 845 844 843 842 841 840 839 837 836 835 833 831 830 828 828 827
838 844 842 834 835 835 831 835 836 830 828 831 834 833 834 843 843 838 847 854 853 854 846 837 836 831 832 834 825 820 823 821 819 819 819 819 819 820 820 821 822 822 823 823 821 822 823 824 827 827 829 831 832 833 834 836 837 838 839 840 841 843 844 845 845 845 845 845 845 844 844 843 842 841 840 839 838 837 835 834 832 830 829 828 827 826
836 843 846 835 832 834 831 833 839 836 831 830 830 830 832 841 845 841 844 848 850 854 851 844 840 835 830 827 826 825 823 822 824 822 821 820 819 820 820 821 821 822 822 822 820 821 822 823 825 826 828 829 830 832 833 834 835 836 837 838 840 841 842 843 844 844 844 844 844 843 842 842 841 840 839 838 837 836 835 833 831 830 829 828 827 826
835 840 846 838 831 836 838 838 840 841 837 833 834 838 837 839 844 844 841 842 846 852 854 853 851 839 827 824 825 826 825 824 825 824 823 822 820 820 821 822 822 821 821 821 820 820 821 823 824 825 827 828 829 830 831 832 833 834 835 836 838 839 840 841 842 842 842 842 842 842 841 841 840 839 839 837 837 836 834 832 831 830 829 828 827 826
838 839 842 840 836 841 845 844 843 845 843 839 838 841 842 842 845 848 848 844 844 849 852 855 856 842 826 824 825 825 826 825 823 825 825 822 821 820 820 821 822 821 820 820 819 819 820 822 823 824 825 826 827 828 829 830 831 832 833 834 836 837 838 839 840 840 841 841 841 840 840 839 839 838 838 837 835 834 833 832 831 830 829 828 827 827
839 837 839 843 842 844 846 845 845 846 845 842 841 841 842 843 846 852 854 847 845 848 847 848 854 843 824 822 825 825 826 825 823 825 824 822 821 820 819 819 820 820 820 820 819 819 820 821 822 823 823 825 825 826 828 829 829 830 831 832 834 835 836 837 838 839 839 839 839 839 838 838 837 837 836 835 834 833 832 831 830 829 829 828 827 826
840 839 841 846 845 845 846 846 847 847 846 845 843 843 845 846 848 851 850 849 849 848 845 846 849 840 825 823 825 825 825 824 822 822 822 823 821 820 820 819 819 820 819 819 819 819 819 820 821 821 822 823 823 825 826 827 828 829 829 831 832 833 835 836 836 837 837 838 837 837 837 836 836 836 835 834 833 832 831 830 829 829 829 828 827 826
842 842 843 848 852 855 854 852 851 850 847 845 845 848 850 850 852 852 847 848 849 845 847 854 850 836 826 824 823 822 822 822 821 820 821 822 822 821 821 820 819 819 819 819 819 818 819 819 819 819 820 820 821 822 824 825 826 827 828 829 830 831 833 834 835 836 836 836 836 835 835 835 835 834 833 832 832 831 830 829 829 829 828 827 827 825
841 843 842 846 851 856 858 856 853 850 846 845 848 852 853 853 856 856 851 850 849 846 848 853 847 833 825 824 823 822 822 822 822 820 820 820 821 821 820 820 820 819 818 818 817 818 818 818 818 818 818 819 820 821 822 823 824 825 826 827 828 830 831 832 833 834 834 834 834 834 834 833 833 833 832 831 830 830 829 828 828 828 827 827 826 825
839 843 843 845 846 848 852 851 849 849 850 853 854 852 852 853 855 857 855 851 851 852 848 842 841 838 832 827 826 824 824 825 823 821 821 820 820 820 819 819 818 817 817 817 816 817 817 817 817 818 818 819 819 819 821 821 822 823 824 825 827 828 829 831 832 832 833 833 832 832 832 832 832 832 831 830 829 829 828 827 828 827 827 826 825 825
839 844 847 848 846 846 847 848 848 850 853 855 856 855 855 854 855 860 861 853 853 858 849 837 840 845 838 830 827 826 826 826 824 823 822 821 821 820 818 817 816 815 814 814 814 815 815 815 816 816 817 818 818 819 819 820 821 822 823 824 825 827 828 829 830 831 831 831 831 831 831 831 832 831 830 829 828 828 827 827 827 827 826 825 824 824
838 844 848 848 848 846 847 848 849 850 851 851 852 854 856 857 860 866 864 853 853 858 850 839 842 845 838 830 827 825 825 826 825 823 822 821 820 818 816 816 815 813 813 812 813 813 814 814 815 815 816 817 817 818 818 819 820 820 822 823 824 825 827 827 829 829 829 830 830 830 830 831 831 830 829 828 827 827 827 826 826 826 826 825 824 824
839 844 847 847 847 847 848 849 849 850 850 849 848 847 850 855 861 867 864 854 854 857 850 843 845 843 834 828 826 824 824 825 824 822 821 820 818 817 816 815 814 813 812 811 812 813 813 813 814 814 815 815 816 817 817 818 819 819 821 822 822 824 825 826 827 828 828 828 828 829 829 829 829 829 828 827 827 827 826 826 826 826 825 824 824 823
842 847 849 846 845 846 847 849 848 848 848 849 848 847 851 858 864 870 871 865 862 860 853 849 849 841 829 824 825 824 823 823 823 822 821 819 818 818 816 815 814 813 812 812 812 812 812 812 813 813 814 815 815 816 816 817 818 819 820 821 822 823 824 825 826 826 827 827 827 828 828 828 828 828 827 826 826 826 826 826 825 825 824 824 823 823
840 846 848 845 846 845 844 846 845 843 844 850 853 853 856 860 861 863 864 862 860 859 857 856 849 835 826 825 825 823 822 822 822 821 821 820 819 817 817 816 814 813 813 812 812 811 811 811 812 813 814 814 815 816 816 817 817 818 819 820 821 822 823 824 825 825 826 826 826 826 827 827 827 826 826 826 825 825 825 825 825 824 824 823 822 822
837 841 842 844 847 843 840 842 842 840 845 851 848 845 847 849 850 853 853 852 852 852 852 848 837 826 824 826 826 825 822 822 822 821 821 820 818 817 817 816 815 814 813 813 812 812 812 812 813 814 814 815 815 816 816 817 817 818 818 819 820 821 823 823 824 824 825 825 825 825 826 826 825 825 825 825 825 825 825 825 824 824 823 823 822 821
839 839 837 841 846 844 839 838 841 845 849 845 834 831 836 839 841 847 847 841 841 842 839 834 828 825 824 824 825 826 823 822 822 820 819 819 818 818 817 816 815 814 813 813 813 812 813 813 814 815 815 815 815 816 816 817 818 818 819 819 820 821 822 823 823 823 824 824 824 824 825 825 824 824 824 824 824 824 824 824 824 823 823 822 821 821
841 840 839 841 844 843 838 840 850 854 844 832 828 830 834 835 836 840 838 831 831 834 833 831 828 825 823 822 823 824 822 821 821 819 819 819 818 818 817 816 816 815 814 813 813 813 814 814 815 815 815 816 816 816 817 817 818 819 819 820 820 821 821 822 822 822 823 823 822 823 824 824 823 824 824 823 824 824 824 824 823 823 822 821 821 820
839 840 840 842 844 844 842 846 852 847 831 825 832 836 836 838 838 840 838 829 824 827 829 829 826 822 822 823 822 821 821 821 819 818 818 818 818 818 817 816 816 816 815 815 814 815 815 815 815 816 815 816 816 816 817 817 818 819 820 820 821 821 821 821 821 821 821 822 822 822 823 823 823 823 823 823 823 823 823 823 822 822 821 820 819 819
835 838 839 843 846 846 845 842 839 835 831 831 834 832 831 832 832 835 838 829 819 820 824 824 823 822 821 822 821 821 821 820 819 816 815 817 818 817 816 816 816 816 816 816 816 816 816 816 816 816 815 815 816 816 816 817 818 819 819 820 821 821 820 820 820 820 821 821 821 821 822 822 822 823 823 823 823 822 822 822 821 821 820 819 818 818
833 834 837 843 846 846 845 843 840 841 840 833 827 824 825 826 825 828 835 829 818 817 820 821 822 822 820 820 821 820 821 821 817 813 814 817 816 816 816 815 815 816 816 816 816 816 816 816 815 815 815 815 815 815 816 817 818 818 819 819 820 820 820 820 820 820 820 820 821 821 821 822 822 822 822 822 822 822 821 821 820 819 819 819 818 817
836 834 834 840 844 844 847 847 845 845 839 827 822 823 825 826 824 827 835 830 816 814 818 819 820 820 819 820 820 819 822 822 814 811 815 817 815 815 815 814 814 815 815 815 816 816 816 816 815 815 815 815 815 815 815 816 817 818 818 818 819 819 819 819 819 819 819 820 820 820 821 821 821 821 822 821 821 821 820 819 819 818 818 818 817 816
840 838 838 842 841 839 844 844 838 834 828 820 821 823 824 824 826 835 842 832 816 814 817 817 818 819 817 818 819 818 820 819 814 812 815 815 815 815 814 814 814 814 814 814 815 815 815 815 815 814 814 814 814 814 815 815 816 817 817 818 818 818 818 818 819 819 819 819 820 820 820 821 821 821 821 820 820 820 819 818 817 817 817 817 816 815
839 838 839 840 835 834 841 843 835 826 818 816 820 822 822 827 833 840 837 822 812 813 815 815 817 816 815 817 817 816 814 813 813 814 814 814 814 813 813 814 814 813 813 813 813 813 814 814 813 813 813 813 813 813 814 815 815 815 816 816 817 817 817 818 818 818 818 819 819 819 819 820 820 821 821 820 819 819 818 818 817 816 816 815 815 814
837 839 838 839 836 831 831 836 835 826 815 814 819 821 824 831 834 828 817 810 810 813 813 814 815 814 814 815 814 813 812 811 812 813 813 813 813 812 812 812 812 812 812 812 812 812 812 812 812 812 812 812 812 812 813 813 814 814 815 815 816 816 816 817 817 817 818 818 818 818 818 819 820 820 820 819 819 818 818 817 816 816 815 814 813 813
828 833 833 831 832 831 833 839 841 831 817 815 821 825 828 827 818 810 807 808 810 810 811 813 812 811 813 813 812 812 812 811 812 812 811 811 811 810 811 811 811 811 810 810 810 810 810 810 809 809 810 810 810 810 811 811 812 812 813 813 814 814 815 815 816 816 816 817 817 817 817 818 819 819 819 819 818 818 817 816 816 815 814 813 813 812
818 823 823 819 820 827 834 835 828 817 811 812 814 817 818 814 805 804 808 808 807 808 810 810 809 809 811 811 811 811 811 811 811 810 810 810 809 809 809 809 809 810 808 808 808 808 808 808 807 807 807 807 808 808 808 809 810 810 811 811 812 813 814 814 815 815 815 816 816 816 817 817 818 818 818 817 817 817 816 815 814 813 812 812 811 810
814 814 816 815 813 816 817 814 807 804 806 809 807 805 806 805 803 806 808 807 806 807 807 807 808 808 809 810 810 810 810 810 809 809 808 809 808 807 808 808 808 808 807 807 807 806 806 806 805 805 805 805 805 806 806 807 807 807 808 809 810 811 812 812 813 814 814 814 815 815 815 816 816 816 816 816 816 816 815 814 813 812 811 810 810 809
809 812 816 814 811 810 808 803 802 804 805 805 805 803 803 804 804 805 807 807 806 804 804 806 807 806 808 809 809 809 809 808 808 807 807 807 806 806 807 806 806 806 806 806 805 805 804 804 803 803 802 802 803 803 803 804 805 805 806 807 808 809 810 810 811 812 813 813 813 814 815 815 815 815 815 815 815 814 814 813 812 811 810 809 809 809
808 813 815 813 813 816 812 802 799 802 802 802 803 803 801 803 803 803 805 805 804 803 803 804 805 806 807 808 808 808 807 806 806 806 806 805 806 805 805 805 805 805 805 804 804 803 803 802 801 801 800 800 800 800 801 801 801 802 803 805 806 807 808 809 809 810 811 812 812 812 813 813 813 813 813 814 814 813 812 812 811 810 809 808 808 808
808 814 815 812 812 813 808 799 797 801 801 800 802 801 799 800 800 800 801 802 802 803 803 803 804 805 806 806 806 806 806 805 805 805 805 805 804 804 804 804 804 804 804 803 803 802 802 801 800 799 799 798 798 798 799 798 798 799 801 802 803 804 805 807 807 808 809 810 810 811 811 812 812 812 812 812 812 812 811 811 811 810 809 808 808 807
810 814 811 809 809 808 803 797 798 800 799 798 798 798 797 798 798 798 799 800 801 801 801 801 802 803 804 804 804 804 805 804 803 803 804 804 803 803 803 803 803 803 802 802 802 801 800 799 799 798 797 796 796 796 796 796 796 796 797 799 801 801 803 804 805 806 807 807 808 809 809 810 811 811 811 810 810 811 811 811 810 810 809 809 809 808
811 809 806 809 813 809 801 795 795 799 798 794 793 795 795 795 796 797 798 799 799 799 799 799 800 801 802 802 802 802 803 802 802 802 803 803 802 802 803 802 802 802 801 800 800 799 798 798 797 796 795 795 794 794 794 793 794 794 794 795 797 798 799 801 802 804 805 805 806 806 807 808 808 809 809 809 809 809 810 810 810 809 809 810 810 809
805 802 801 806 808 801 794 791 791 795 796 792 791 793 793 793 795 796 796 796 796 796 796 797 797 798 799 799 800 801 801 800 801 802 801 801 801 801 802 802 801 800 799 799 798 797 796 796 795 795 794 793 792 792 791 791 791 791 791 792 793 794 796 797 799 801 801 802 803 804 805 806 806 806 807 807 807 808 808 808 808 808 808 809 810 810
Wind_Speed
2 2 3 2 3 3 3 3 4 2 2 3 3 2 3 4 4 6 5 4 8 9 9 10 10 9 5 4 4 5 7 8 8 8 7 7 8 8 8 8 8 8 8 10 11 10 10 9 8 7 6 5 4 3 3 2 1 3 5 6 8 8 9 11 11 12 13 14 14 13 12 11 10 8 7 6 6 6 6 7 7 7 7 7 7 6
3 1 5 5 5 5 3 1 1 1 2 3 3 3 4 4 3 5 5 4 7 8 7 9 10 10 8 3 4 5 7 7 7 8 7 8 8 7 8 9 8 8 8 10 11 10 10 10 9 8 7 6 5 4 3 2 1 2 3 5 7 7 8 9 10 11 11 13 13 13 13 12 10 8 7 7 7 7 7 8 8 8 8 8 8 8
3 4 6 5 4 3 1 1 2 2 3 3 2 3 3 3 2 4 4 4 6 7 6 8 9 9 10 7 5 7 8 6 6 8 7 8 8 7 8 9 9 9 9 10 11 12 11 11 11 9 7 7 6 5 4 3 1 1 2 3 5 6 7 8 9 10 11 11 11 12 14 13 10 9 8 8 8 8 8 8 8 7 8 8 8 8
4 6 6 3 3 2 1 1 4 3 2 3 2 3 1 3 2 2 5 5 7 7 6 8 8 8 9 8 7 9 8 7 7 8 8 8 8 8 8 8 9 10 10 11 11 13 13 12 12 10 9 8 7 6 5 4 3 1 0 1 3 4 5 7 8 10 11 11 11 12 13 12 10 9 8 8 7 8 8 8 7 7 7 8 8 8
7 7 4 2 2 2 1 2 2 4 2 1 3 4 2 4 3 2 4 5 6 7 6 7 7 7 7 8 8 8 8 8 8 8 8 9 8 8 8 8 10 10 10 11 12 13 13 13 12 11 10 9 8 7 6 5 4 2 2 1 2 3 4 6 8 9 10 11 12 13 14 13 11 9 8 9 9 9 9 9 9 9 8 8 8 8
8 6 3 2 2 1 1 3 5 6 2 3 4 5 4 3 2 1 5 6 4 6 7 7 7 4 3 6 9 7 7 9 9 9 10 9 9 8 8 9 11 11 11 12 12 13 14 14 13 12 11 10 9 8 7 6 5 4 3 2 2 3 4 5 7 8 9 11 12 13 15 14 12 11 10 10 10 11 11 10 10 10 10 9 8 8
5 4 2 1 1 1 1 4 7 8 5 1 5 5 3 0 2 4 5 5 4 1 5 7 8 4 1 6 9 8 8 9 9 10 10 9 8 8 8 9 10 11 11 11 12 13 14 14 14 14 12 12 10 8 7 7 6 5 4 3 2 3 4 5 6 8 8 10 12 13 14 14 13 12 12 11 11 11 11 12 12 11 10 10 9 9
4 3 3 2 2 1 2 4 8 8 6 2 5 3 2 2 3 2 4 6 4 1 3 7 6 6 4 4 6 7 9 10 9 10 10 9 9 9 9 9 9 9 9 10 10 12 15 15 15 15 14 12 10 8 8 8 7 6 5 4 3 3 3 4 6 7 8 9 11 11 13 14 13 12 12 12 11 11 12 12 12 11 10 9 9 9
4 6 6 5 3 3 5 5 8 8 6 4 5 4 3 3 5 4 6 6 2 3 4 6 4 7 5 2 5 5 7 8 9 9 8 9 10 10 9 8 8 8 9 10 10 12 15 16 15 15 14 12 10 9 8 8 7 7 6 5 4 3 3 3 4 6 7 8 10 10 12 15 14 13 13 12 11 12 12 12 12 11 10 9 8 8
4 7 7 7 5 5 5 5 6 8 5 5 3 4 3 4 5 4 6 4 2 5 4 4 3 6 5 1 3 2 3 3 3 5 7 9 9 9 7 7 7 7 8 9 10 12 14 15 15 15 13 12 11 10 10 9 8 8 7 6 5 4 3 3 4 5 6 8 9 10 12 15 15 14 14 13 12 12 12 12 12 12 11 9 8 7
5 3 3 6 6 5 4 2 3 5 4 2 4 6 5 5 4 4 4 3 4 4 1 4 1 5 6 2 2 1 2 3 2 1 3 5 7 6 6 6 7 6 7 8 9 11 12 12 13 14 14 12 12 11 11 10 9 9 8 7 5 4 3 3 4 5 6 7 8 9 11 14 15 15 14 13 13 12 12 12 11 11 11 9 8 8
6 3 2 4 5 6 4 3 2 1 3 4 4 4 5 4 3 4 4 3 5 2 4 4 2 4 6 1 3 3 3 2 2 2 1 1 2 2 3 4 4 5 6 6 7 8 10 11 13 14 14 14 13 12 12 12 11 9 8 7 6 5 4 3 4 4 5 6 8 8 10 14 15 14 14 13 13 12 12 12 12 12 11 10 9 8
4 4 4 3 2 7 7 3 2 3 3 3 3 3 4 3 2 3 2 2 4 1 4 3 1 4 3 3 4 4 3 1 1 2 1 2 2 1 0 1 1 3 5 6 6 6 8 10 12 14 15 15 14 13 13 13 12 10 9 7 6 5 4 4 4 4 5 6 7 8 10 14 15 14 14 14 13 12 11 13 13 12 11 11 9 8
3 4 3 1 2 6 9 5 2 2 3 5 4 3 4 3 2 3 3 3 3 1 4 3 2 5 2 4 5 4 3 3 2 2 2 2 1 1 1 1 1 2 3 4 5 5 7 10 11 13 14 14 14 14 14 13 13 11 9 8 7 6 5 4 4 4 5 6 7 7 9 13 14 14 14 14 13 11 11 12 13 12 11 11 10 9
1 3 4 4 3 5 7 6 6 6 4 4 4 5 4 3 4 4 4 4 4 3 1 3 2 4 2 2 3 4 3 3 2 1 1 1 1 1 1 1 1 1 2 2 3 4 6 9 10 11 12 13 13 13 13 13 13 11 9 9 8 6 6 5 5 4 5 5 6 7 8 12 14 14 14 13 13 11 10 12 13 12 12 10 10 10
2 3 6 5 3 5 6 5 5 7 3 1 2 4 3 4 4 3 3 4 5 5 2 1 2 2 2 2 2 3 3 3 2 1 1 1 0 0 1 1 1 1 1 1 2 3 5 7 9 9 10 11 11 12 13 13 13 12 10 9 8 7 6 6 5 4 5 5 6 7 8 11 13 13 13 13 12 11 10 12 13 13 12 10 9 9
1 4 5 2 2 4 5 5 5 6 4 1 2 2 4 3 5 3 1 1 3 5 1 1 3 1 2 2 4 4 4 4 4 3 2 2 1 1 1 1 1 1 1 1 1 1 3 5 7 8 9 10 10 10 12 12 12 12 10 9 8 8 7 6 6 5 4 5 6 7 7 10 13 13 13 13 12 10 11 13 13 13 11 9 8 7
2 3 5 1 2 4 2 2 3 5 6 5 2 4 1 2 2 3 3 1 3 4 2 1 4 3 1 1 4 5 4 4 4 3 3 2 3 3 1 0 2 2 1 1 1 2 3 5 6 7 8 9 9 10 10 11 11 11 10 9 9 8 8 7 6 4 4 5 6 6 7 9 12 13 13 13 11 11 13 14 13 12 10 9 8 7
3 1 5 1 0 4 3 5 2 5 5 4 3 2 2 2 1 1 2 3 4 5 3 2 3 3 2 2 1 1 0 1 1 1 2 2 2 2 1 1 2 3 3 3 3 3 4 5 6 7 8 8 9 9 9 9 10 10 10 10 9 9 8 7 5 4 4 5 5 6 6 8 10 13 14 12 10 12 14 14 13 10 8 7 7 8
2 2 4 3 0 2 4 3 1 3 4 2 3 2 1 3 3 3 2 4 5 5 4 4 3 2 3 4 4 5 4 4 4 4 4 4 3 3 3 2 2 3 4 4 4 3 4 6 6 7 8 8 8 8 8 9 10 11 10 10 10 9 9 8 6 5 5 5 5 5 6 7 9 12 13 11 10 12 13 12 10 8 6 6 7 9
2 2 1 3 3 3 2 2 4 4 2 0 1 1 2 1 2 2 1 2 4 5 4 5 5 3 4 4 5 5 5 4 4 5 5 5 5 4 4 3 3 3 4 4 4 4 4 6 6 7 8 8 8 8 8 9 10 11 11 10 10 10 10 9 7 6 5 5 5 5 6 6 9 11 12 11 11 11 11 10 8 7 7 7 8 9
2 2 1 1 3 2 3 5 5 5 5 5 3 3 3 2 2 3 1 1 2 4 4 5 6 3 4 3 4 4 4 4 5 6 7 7 8 7 5 4 3 3 3 4 4 4 5 6 7 8 8 8 9 9 9 10 10 11 11 11 11 10 10 9 7 6 5 5 4 5 5 6 9 11 12 12 11 10 9 8 7 7 7 8 8 10
2 2 1 1 3 4 6 4 2 2 2 3 3 3 3 3 3 4 3 2 2 3 2 4 4 2 5 4 3 3 3 5 6 7 8 9 9 9 7 5 3 3 3 3 4 4 4 6 6 7 8 9 9 9 10 11 11 11 12 12 11 11 11 9 8 6 5 5 4 4 5 6 9 11 12 11 10 9 8 7 7 7 8 9 10 11
1 2 1 2 4 4 4 3 2 1 3 2 2 2 3 3 3 4 5 4 4 3 3 4 4 1 4 4 2 1 2 5 6 7 8 8 8 8 7 5 3 2 2 2 3 3 4 5 6 7 8 9 9 9 10 10 10 11 11 12 11 11 11 10 8 7 6 5 4 4 5 7 9 11 12 12 10 8 8 7 5 7 8 9 11 12
1 1 2 3 4 5 4 4 4 4 3 2 2 3 2 2 2 4 3 3 4 2 2 5 5 2 3 2 2 3 4 7 7 7 6 6 6 6 5 4 3 2 1 2 2 3 4 5 6 7 8 8 8 8 9 10 10 10 11 12 12 11 11 10 8 7 6 5 4 4 5 7 10 11 12 12 10 8 8 6 4 6 8 9 11 12
1 1 2 3 1 2 1 1 1 0 0 1 1 0 1 1 2 4 3 4 3 1 1 6 6 4 4 4 5 6 7 8 8 6 6 5 5 5 4 4 3 3 2 2 2 2 3 4 5 6 6 7 7 7 8 9 10 10 11 12 12 11 11 10 8 7 6 4 4 4 5 7 9 11 12 11 9 8 8 6 5 6 7 8 10 11
1 1 2 4 4 3 3 4 4 2 2 2 2 2 1 2 3 4 5 4 3 4 4 4 5 8 9 8 7 7 7 8 7 7 7 6 5 5 4 4 4 3 2 2 2 2 2 3 4 4 5 6 6 7 7 8 9 10 11 12 12 11 11 10 8 7 6 4 4 4 4 6 9 10 11 10 8 8 8 6 5 6 7 9 9 9
3 3 2 2 3 4 3 3 2 2 3 3 4 3 2 3 3 4 6 5 5 5 5 3 5 9 10 9 9 7 6 7 7 8 8 7 7 6 5 5 5 4 3 3 2 3 4 3 3 4 5 5 6 7 7 7 8 9 10 11 12 11 11 10 8 7 6 4 3 4 5 7 8 9 10 9 7 8 7 5 5 6 7 8 8 8
3 2 2 1 1 2 1 0 2 3 4 4 5 5 5 5 4 5 7 7 4 5 7 8 9 11 10 9 8 7 6 7 8 8 8 7 7 7 6 7 7 6 6 5 4 4 4 4 3 3 4 5 6 7 7 7 7 8 9 10 10 11 11 10 8 7 5 4 3 5 7 8 9 9 9 8 7 8 7 5 4 6 7 7 8 8
3 2 3 3 3 3 3 2 4 4 4 5 6 6 5 6 6 6 8 8 5 8 11 11 12 12 9 7 7 6 6 7 7 8 8 8 7 7 7 7 7 7 7 7 5 4 3 3 3 3 4 5 6 6 6 7 6 7 8 9 10 10 10 9 8 7 5 4 4 6 8 8 8 9 9 7 6 7 6 6 5 6 7 7 8 8
3 1 2 4 5 5 6 4 5 5 5 5 4 3 1 1 2 4 5 5 5 7 9 9 11 10 4 3 5 6 6 7 7 7 7 7 7 7 7 7 7 8 7 5 4 3 3 3 3 3 4 4 5 5 5 5 6 7 7 8 9 9 9 8 7 6 5 4 5 7 8 8 8 9 8 7 7 6 6 6 7 7 7 7 8 8
3 1 3 4 5 3 6 4 4 5 6 5 3 3 3 3 1 3 3 4 5 3 3 5 8 6 2 3 6 7 7 8 8 6 5 5 6 7 8 8 8 7 5 4 3 4 4 4 4 4 4 4 4 4 4 4 5 6 7 8 8 8 8 7 7 6 5 5 6 8 8 8 8 9 8 8 7 7 7 7 8 8 8 8 9 9
3 2 2 3 4 1 5 2 6 7 6 4 2 2 5 6 4 3 4 6 8 5 3 4 5 6 6 5 7 8 8 8 6 5 4 5 6 8 8 8 7 5 4 4 4 5 5 6 6 6 6 5 4 3 3 3 4 4 5 6 7 7 7 7 6 6 6 6 7 8 7 8 8 9 9 8 8 7 7 7 7 7 8 9 9 9
3 4 2 1 3 1 2 3 7 6 3 2 3 1 2 4 4 3 5 7 8 8 6 6 7 7 7 6 7 8 8 6 5 4 4 5 6 7 7 7 6 4 3 3 4 5 6 6 6 6 5 5 3 2 2 1 2 2 3 5 6 6 6 6 6 6 6 7 8 7 7 8 8 9 9 8 8 7 7 7 7 7 8 9 9 9
4 4 2 1 4 3 2 5 5 2 2 3 2 1 1 2 4 5 8 8 7 9 9 8 7 6 7 6 5 6 5 4 5 5 4 5 5 6 7 6 5 4 4 4 4 5 6 6 5 5 5 4 3 2 1 0 1 2 3 4 5 5 6 6 6 6 7 7 8 7 7 8 8 8 8 7 7 7 7 7 8 9 10 10 10 9
4 4 3 2 3 3 3 4 3 3 5 2 3 2 2 2 3 5 7 6 5 6 8 7 6 5 5 5 4 4 4 4 6 5 3 4 5 5 6 5 4 5 4 4 4 5 5 4 4 4 3 3 2 1 1 1 2 2 3 4 4 5 6 6 7 7 7 7 7 7 6 7 7 7 6 6 6 6 7 8 8 9 10 10 9 8
5 4 3 3 3 3 4 4 4 5 4 3 5 4 3 2 1 2 6 5 3 4 5 5 5 5 4 4 3 3 4 6 7 3 1 2 4 4 5 4 4 4 4 4 4 3 3 3 2 2 1 1 1 2 2 2 3 3 3 3 4 5 6 6 7 7 6 6 6 6 6 6 6 5 5 5 5 6 7 8 8 8 8 7 7 7
7 5 4 4 3 3 4 5 4 5 2 3 5 6 4 1 1 1 6 5 3 5 5 4 4 4 4 3 3 3 5 7 6 1 4 3 4 4 5 5 4 4 4 4 4 3 2 2 2 1 1 1 2 3 3 4 4 4 4 3 4 5 6 6 7 6 6 6 6 6 6 5 5 5 4 4 5 6 7 7 8 8 7 6 7 7
7 5 5 5 4 4 5 5 3 3 2 1 5 7 6 2 2 2 6 3 5 6 5 4 4 4 4 3 3 4 5 6 4 3 5 4 5 5 6 6 5 5 4 3 4 4 3 3 3 4 3 3 4 4 5 6 6 5 4 3 4 5 5 6 6 6 6 6 5 6 5 5 6 5 5 6 6 7 8 8 8 7 6 7 7 7
6 5 5 6 6 5 5 5 4 4 3 2 6 7 6 5 4 4 6 1 6 4 4 4 4 4 4 3 3 4 5 5 5 5 4 4 5 5 5 6 6 6 5 4 4 4 5 5 5 6 6 6 6 6 7 7 6 6 5 4 4 5 5 6 6 6 6 6 6 6 5 6 6 5 6 7 7 7 8 8 8 7 6 6 7 7
5 5 5 6 6 5 5 6 5 4 2 4 7 8 8 6 4 5 3 3 3 2 3 4 5 5 4 4 4 4 5 5 5 5 5 6 6 6 6 6 6 6 6 6 5 6 6 7 7 8 8 7 7 7 8 8 7 7 6 5 5 5 5 5 6 6 6 6 6 7 6 6 6 6 6 7 7 7 7 7 7 7 7 7 7 7
5 5 5 5 6 5 4 5 6 4 1 6 8 8 8 5 3 1 2 3 0 2 3 5 5 5 5 5 5 5 6 6 5 6 6 7 7 7 7 7 7 7 7 6 6 7 7 8 9 10 10 9 8 9 10 10 9 9 8 7 6 6 5 6 6 6 7 7 7 7 6 6 6 6 6 6 6 7 7 7 7 8 8 8 7 7
5 5 5 5 5 4 4 5 6 4 3 10 11 8 7 6 2 4 2 0 2 3 4 4 5 5 5 6 6 6 7 7 7 7 7 7 7 7 8 8 8 9 9 8 8 7 8 8 9 11 11 11 11 11 11 12 12 11 10 9 8 6 6 6 6 7 7 7 7 7 7 6 6 6 6 6 6 7 7 8 9 9 9 9 8 8
5 5 4 4 5 4 5 5 3 1 6 13 10 4 7 9 4 4 3 3 3 4 4 4 5 4 5 6 6 6 6 7 7 7 7 7 7 7 8 8 9 10 10 9 8 6 7 9 10 10 11 11 12 13 13 14 14 13 12 11 9 7 7 7 7 7 7 7 8 7 7 7 6 6 6 6 6 7 8 9 9 9 8 8 8 8
5 3 3 2 4 5 5 4 1 4 6 11 9 5 5 9 7 4 5 5 4 4 4 4 5 4 4 6 6 6 6 7 7 7 7 7 8 8 9 10 11 11 10 9 7 6 7 9 10 10 11 11 13 14 15 15 15 15 15 13 10 9 9 8 8 8 8 7 8 8 7 7 7 7 6 6 6 7 8 9 8 7 6 6 6 6
2 1 1 2 3 4 7 8 6 4 5 9 10 8 6 6 5 4 6 7 7 6 5 4 5 4 4 5 5 6 6 6 7 7 7 7 8 9 10 11 11 11 10 8 7 6 7 8 9 10 11 12 13 14 15 16 17 18 16 13 11 11 10 10 9 9 8 7 7 7 7 7 7 7 6 6 6 6 7 7 6 5 4 5 5 5
4 5 4 4 3 2 5 7 7 9 8 7 9 11 10 9 8 7 7 8 8 8 7 5 5 5 4 6 6 6 6 7 7 7 7 7 8 9 10 11 12 11 9 8 7 7 7 8 9 10 11 12 12 14 15 17 19 19 17 14 13 12 11 11 10 10 9 8 8 8 8 7 7 6 6 6 6 6 5 5 4 4 4 4 4 5
4 5 6 8 7 7 8 7 5 6 7 6 7 8 9 10 11 10 9 9 8 8 8 7 6 6 5 6 7 6 7 7 7 7 7 7 7 9 10 11 11 10 9 8 7 7 7 8 9 10 11 11 11 12 14 16 18 19 18 16 14 13 13 12 12 11 10 9 9 8 8 8 7 7 7 6 5 5 5 4 3 4 4 3 3 3
4 4 4 5 7 9 11 11 9 8 8 9 10 10 9 9 10 9 8 8 8 9 10 9 8 8 7 7 6 6 7 8 7 7 6 6 7 8 10 11 10 10 9 8 7 7 7 8 9 10 11 11 10 10 12 15 16 18 19 19 17 15 14 14 13 12 11 10 10 10 9 8 8 7 7 7 5 4 4 4 4 4 3 2 2 1
4 6 5 4 6 8 8 8 7 7 8 6 6 8 9 9 9 9 8 8 9 9 9 9 9 9 9 9 8 6 6 7 7 6 5 6 7 9 10 10 10 9 9 9 9 9 9 9 10 10 11 11 10 10 12 13 14 15 17 19 19 18 17 16 14 14 13 12 11 11 10 9 9 8 8 7 6 5 4 3 4 5 4 4 3 3
8 9 7 6 8 9 10 9 6 5 7 7 4 5 6 6 7 9 10 10 10 9 9 9 9 9 9 9 8 7 6 6 6 5 5 6 8 9 9 8 9 10 10 10 10 10 10 10 10 11 11 11 10 10 11 12 13 13 15 18 20 20 19 17 15 14 14 13 12 12 11 10 9 8 9 8 7 6 5 3 3 4 6 6 4 3
Wind_Direction
200 172 130 66 50 36 15 358 333 323 184 228 232 240 232 219 226 211 182 170 199 218 225 225 239 244 213 148 171 194 189 194 194 189 190 185 182 182 184 180 176 179 167 156 159 163 167 166 164 169 174 174 176 181 200 203 98 46 37 35 28 21 21 20 17 16 13 10 4 359 357 353 345 338 328 321 323 323 329 336 337 338 339 336 328 320
222 142 73 33 24 18 3 9 306 231 182 219 236 253 235 225 210 183 184 173 198 224 232 233 245 248 244 211 172 200 211 211 209 204 200 193 189 184 186 187 185 183 166 157 165 172 176 178 181 184 185 185 186 192 207 203 117 42 32 33 25 17 17 18 15 13 11 8 2 357 355 349 342 339 333 326 321 316 315 317 320 325 328 330 325 321
168 87 64 36 16 8 19 197 226 205 211 225 222 251 235 210 141 144 183 193 194 222 241 235 243 249 245 240 212 213 223 225 220 220 217 205 197 187 189 192 191 189 176 171 177 181 184 189 190 191 196 197 194 197 206 200 173 39 27 30 21 14 13 14 12 9 5 3 360 356 354 349 342 337 333 327 321 318 318 314 316 319 321 319 315 316
118 70 47 22 335 297 122 151 242 225 232 271 265 260 178 140 219 199 176 193 202 217 251 248 245 246 236 235 237 230 227 219 212 214 216 214 205 196 194 192 196 197 189 186 187 186 189 191 193 198 202 202 201 203 205 200 194 208 267 18 13 5 7 9 5 3 0 357 357 356 353 350 346 340 336 333 329 326 324 320 318 322 326 323 315 313
75 56 13 303 265 271 168 94 305 277 230 34 342 325 53 140 241 313 121 158 198 211 239 261 256 243 231 236 243 234 224 212 202 203 208 210 210 208 200 193 202 207 201 197 195 192 192 192 196 202 206 206 208 207 205 202 199 206 222 281 352 346 356 2 359 359 358 357 357 356 353 353 351 347 344 344 340 335 329 323 319 317 317 319 319 320
65 45 335 269 107 7 298 69 14 318 271 108 50 24 40 133 172 96 139 167 209 216 211 235 260 252 222 249 245 222 218 218 206 207 211 207 206 207 200 198 207 211 207 203 201 196 192 193 199 203 206 209 211 211 207 201 200 206 215 238 305 328 342 352 355 357 358 358 358 356 355 354 350 347 348 344 337 333 330 325 320 315 307 304 307 313
61 48 342 336 47 50 98 72 30 335 292 121 65 45 37 74 166 161 183 217 258 263 173 208 260 282 249 253 241 214 218 223 210 210 215 208 202 203 202 207 211 210 208 206 204 201 197 198 200 201 205 210 212 212 206 199 199 206 214 226 268 309 330 343 352 354 357 359 357 356 355 352 347 344 343 338 332 329 328 325 322 316 308 302 296 300
36 60 71 16 317 333 40 49 24 341 303 49 59 11 316 287 275 234 236 255 277 14 160 195 246 280 267 233 206 203 220 222 213 216 219 212 208 209 210 216 214 208 206 205 207 206 201 201 201 201 206 209 211 210 205 202 201 205 213 218 240 285 317 333 345 351 356 358 356 355 354 352 348 342 337 334 331 331 330 329 325 320 313 306 295 293
22 41 39 3 344 31 38 30 11 337 315 45 45 330 313 299 292 281 269 270 281 282 240 186 208 273 274 157 146 192 231 233 225 229 232 226 221 218 219 228 224 208 205 211 215 211 205 204 203 202 207 208 209 210 209 208 204 205 210 212 227 260 295 316 334 345 351 355 355 355 355 353 348 342 338 334 331 332 332 330 328 324 318 312 301 291
59 42 20 4 13 27 29 27 5 337 337 30 351 280 250 252 259 262 273 280 248 263 264 140 178 276 287 185 144 192 260 274 250 242 246 240 234 228 229 239 232 214 212 217 221 218 212 208 202 201 207 207 207 210 212 212 209 208 208 210 221 242 277 301 321 334 345 353 353 355 355 353 349 344 340 336 333 336 334 330 330 330 325 318 307 292
94 74 24 31 19 353 348 359 12 346 334 323 271 255 233 234 240 247 263 273 259 253 106 97 160 275 285 274 100 52 334 334 341 292 259 247 239 232 230 234 232 224 219 218 223 224 217 208 202 202 205 207 210 212 212 215 215 213 212 211 218 235 263 289 309 324 339 349 351 354 354 351 349 345 342 338 335 336 333 330 332 333 329 321 310 293
121 131 101 62 12 346 310 242 175 238 249 240 253 267 257 234 222 238 215 213 263 269 93 90 138 246 267 298 66 21 339 301 314 6 13 273 225 213 224 233 238 237 230 223 226 226 213 203 201 202 204 209 215 215 212 215 216 216 216 212 218 232 251 278 298 315 331 344 349 351 351 350 349 344 341 337 334 334 332 330 330 329 328 324 316 296
121 86 88 118 47 357 326 278 178 193 223 268 280 290 283 265 236 262 238 229 277 31 98 100 154 248 254 60 35 360 359 349 348 18 38 55 78 100 226 253 241 240 241 235 229 224 210 202 202 203 205 210 216 216 214 214 214 216 218 215 220 231 242 266 284 303 322 339 347 348 350 349 346 343 339 334 333 333 328 326 326 325 326 326 321 305
136 112 92 130 96 3 344 354 18 351 4 357 342 322 309 319 321 293 288 295 307 62 118 137 247 266 230 72 31 20 47 56 50 45 30 38 48 25 351 326 277 241 247 243 229 220 210 206 207 208 209 212 215 216 214 213 213 215 217 216 221 228 237 253 268 292 315 333 341 344 348 347 345 342 339 333 332 330 322 322 323 321 322 322 318 312
280 119 59 19 15 3 12 25 0 335 338 7 350 315 327 5 338 317 319 327 333 333 129 154 239 295 329 30 34 62 88 88 89 85 49 345 316 341 317 306 311 265 257 250 229 217 212 211 213 211 211 213 215 214 213 213 214 214 217 219 220 227 235 245 258 283 308 325 335 339 343 346 344 341 338 333 330 325 317 317 317 317 319 317 314 316
296 82 67 48 28 12 29 40 349 317 303 32 331 298 354 12 328 323 336 339 330 309 304 163 276 326 37 65 104 128 144 139 140 147 149 173 140 318 283 301 337 328 326 288 234 214 207 208 212 213 213 215 215 214 213 215 215 213 218 218 218 227 234 241 251 274 300 315 329 335 339 344 343 341 338 332 328 323 315 313 313 313 314 311 312 317
252 104 98 122 118 53 32 34 11 341 327 317 296 348 37 350 311 308 276 226 268 278 301 5 301 290 105 100 132 167 185 164 167 181 163 132 122 238 281 7 337 333 354 302 253 212 203 203 209 213 216 217 217 217 217 218 217 215 217 217 218 224 229 236 247 266 294 309 321 329 337 342 342 340 337 332 328 323 317 314 312 311 310 311 316 324
310 121 118 193 161 105 55 332 46 23 340 313 354 41 35 252 271 288 279 247 270 294 345 356 312 308 317 79 143 170 191 184 185 190 185 184 201 221 226 328 313 316 317 284 248 218 213 209 211 215 220 222 220 222 224 222 218 216 215 215 219 224 226 232 241 259 292 308 316 326 333 339 340 338 335 332 326 322 320 316 311 308 311 316 325 335
308 169 128 167 296 121 178 234 167 79 25 3 54 55 292 272 273 278 298 314 310 316 329 328 319 317 338 31 76 113 59 268 278 284 266 254 246 265 286 269 276 272 260 255 235 223 217 214 217 217 219 223 222 225 227 223 217 213 211 214 220 224 225 226 233 253 286 301 307 319 324 332 338 336 335 332 323 324 325 321 318 318 324 327 330 340
288 278 128 132 134 167 194 234 248 93 88 119 152 143 344 341 338 336 333 319 312 315 321 327 329 340 33 27 354 348 2 351 338 328 316 324 333 333 333 321 296 261 242 241 235 225 221 219 219 219 220 224 225 224 224 220 216 214 212 215 219 220 220 220 227 247 275 288 295 307 315 327 335 334 335 330 320 324 331 333 336 340 349 349 343 347
273 297 97 129 160 206 193 44 8 9 33 164 173 42 20 13 301 294 273 314 314 314 322 323 321 358 52 31 357 357 6 358 347 343 335 330 329 333 343 339 315 279 246 240 238 230 227 224 220 219 221 225 227 224 220 217 217 217 215 215 216 216 217 218 224 242 263 275 288 301 310 325 332 330 332 328 317 321 333 340 340 340 349 354 349 347
306 290 316 133 154 151 74 51 13 0 354 345 1 6 356 358 307 281 245 98 311 307 326 316 312 358 71 55 20 17 10 358 351 342 328 318 319 323 328 329 310 290 263 245 244 238 229 226 222 219 218 221 224 222 217 216 217 218 216 216 216 214 215 218 222 235 254 266 281 300 309 322 329 326 327 325 315 318 327 329 330 337 344 346 343 339
327 282 249 93 80 76 76 65 12 4 348 341 14 16 346 341 322 309 330 10 311 291 308 286 290 21 85 80 40 24 2 345 337 328 318 316 317 313 312 318 309 286 271 252 248 247 239 234 230 225 222 222 223 222 218 217 218 217 215 216 217 213 212 215 219 230 247 260 276 297 306 319 326 323 323 322 314 312 317 317 326 337 339 340 338 333
243 273 223 127 106 104 109 119 146 205 246 256 67 42 340 340 347 325 327 333 309 298 309 285 279 39 89 90 43 334 314 316 318 323 322 320 318 315 319 324 321 299 275 253 247 247 246 241 235 232 230 227 227 224 218 217 218 215 213 215 216 212 208 209 215 227 240 253 273 295 306 318 325 321 319 319 311 305 308 310 326 335 334 337 334 329
207 287 255 197 163 160 169 169 174 195 234 278 52 53 349 350 329 294 287 281 281 302 339 300 300 11 66 80 285 282 298 315 326 338 338 331 327 331 336 334 336 336 306 265 252 245 243 243 239 236 235 233 232 225 216 216 217 214 211 210 210 208 205 207 212 222 236 250 271 295 308 320 323 320 319 316 306 301 299 295 313 328 329 334 332 331
243 320 296 272 244 183 184 103 96 151 304 21 64 155 249 240 265 290 289 271 288 6 273 269 288 335 354 332 311 316 325 327 333 345 346 347 348 345 343 341 340 331 323 317 295 266 247 248 246 243 240 238 238 230 220 218 214 213 211 206 204 204 202 204 209 218 233 246 272 298 312 321 322 321 320 314 301 297 291 282 299 321 327 333 337 339
187 102 1 340 5 33 34 49 48 353 332 336 314 297 272 224 237 274 279 285 346 348 283 271 300 312 321 329 328 335 338 331 336 344 344 350 354 345 336 333 322 309 322 330 314 302 282 265 256 253 249 244 243 238 228 221 214 212 209 202 199 200 199 201 207 217 231 243 270 295 309 318 320 321 321 315 299 291 286 283 312 330 332 335 339 344
217 140 86 353 34 49 33 49 63 296 292 297 292 275 246 245 244 245 263 296 341 309 291 7 347 307 314 329 332 341 343 333 337 339 336 337 333 326 322 315 308 304 307 305 312 319 306 291 271 256 251 246 245 241 232 227 218 212 207 201 199 197 196 199 206 218 231 241 267 297 311 316 320 323 324 317 299 292 288 288 323 333 334 339 340 337
269 124 124 233 173 96 57 213 212 246 266 276 275 255 234 236 219 211 248 275 283 263 285 332 326 306 311 318 324 344 346 332 331 328 321 315 309 311 313 308 307 312 309 307 320 330 317 304 287 261 253 245 242 238 232 230 222 210 205 203 200 197 196 199 206 219 233 242 263 299 310 313 318 322 324 318 308 307 300 294 320 328 328 338 341 332
286 122 138 237 228 172 168 196 205 226 259 275 277 265 240 223 206 212 254 275 268 261 278 298 303 299 303 310 321 341 339 322 315 312 309 308 308 313 313 310 311 315 315 316 328 341 335 319 295 269 256 248 243 238 232 230 223 210 205 205 203 199 197 201 207 219 235 248 269 297 305 308 313 320 322 315 311 315 306 297 307 314 319 330 337 334
274 122 138 246 243 177 160 184 203 225 271 291 302 296 259 154 214 225 254 271 268 272 279 287 289 285 289 325 322 320 315 306 302 306 314 320 325 321 316 319 322 321 322 324 332 349 350 340 325 300 285 273 260 248 238 231 221 212 210 210 205 202 203 204 209 221 235 251 277 293 297 300 307 314 317 311 305 309 303 296 297 301 312 322 323 325
232 181 166 236 257 167 154 195 239 260 269 263 273 266 182 151 215 216 205 208 207 225 258 266 278 291 353 350 315 308 306 305 306 311 317 324 330 327 324 326 326 327 333 338 350 2 2 5 5 354 339 322 299 270 250 235 222 215 214 211 207 205 208 207 213 232 242 254 278 287 288 295 304 307 311 306 298 299 300 301 302 302 309 316 315 316
224 218 191 230 274 162 146 232 293 287 264 216 194 242 204 199 217 213 219 219 202 198 239 276 298 330 346 322 308 311 312 314 318 318 318 323 326 330 331 328 327 337 352 356 8 17 15 17 15 10 2 347 332 307 278 249 230 227 217 209 206 203 207 211 222 241 252 261 277 281 281 291 299 303 306 301 294 294 297 299 299 296 301 310 311 311
215 244 240 229 275 262 131 290 285 274 264 110 83 20 245 239 240 227 250 247 214 209 248 290 305 315 320 315 315 318 317 322 326 320 320 317 315 325 333 332 336 347 358 10 25 29 25 23 18 17 14 3 356 349 321 266 224 224 204 200 204 205 214 226 235 248 258 266 273 275 279 289 298 303 304 297 290 288 287 290 293 290 293 302 302 302
200 229 232 223 270 283 308 288 272 271 19 47 70 69 311 273 258 257 269 264 229 221 242 269 286 300 317 325 324 315 311 316 312 309 322 322 314 319 326 333 343 346 355 15 25 28 29 27 21 21 25 23 24 33 29 111 178 187 187 199 209 214 227 241 250 255 259 264 268 270 276 289 299 304 302 296 290 285 282 286 291 290 291 293 293 293
213 221 214 221 257 271 277 266 274 340 352 33 99 119 142 191 220 255 272 257 222 224 236 252 279 306 321 322 316 306 305 301 290 283 307 328 326 323 321 329 338 339 348 0 5 15 19 18 18 21 31 42 51 73 93 121 161 173 187 205 219 232 244 253 260 261 255 257 263 267 275 289 302 306 302 298 293 286 286 287 288 292 295 289 285 285
230 228 222 224 231 260 279 271 278 297 290 146 133 152 171 186 202 273 293 278 221 210 225 248 287 309 311 306 299 295 297 289 277 250 121 350 333 335 328 324 322 319 322 329 336 349 350 348 358 13 40 79 112 126 130 146 164 182 202 214 231 252 259 260 263 260 248 246 257 265 272 285 299 303 300 301 298 293 294 294 289 295 299 290 284 285
227 231 234 233 214 228 278 287 285 285 269 138 140 149 146 72 52 280 289 280 194 176 201 245 289 301 300 301 294 285 288 286 283 73 77 19 341 346 337 324 309 300 299 301 302 301 302 304 292 272 229 187 183 169 167 169 174 196 222 232 248 265 267 262 261 253 240 240 254 261 265 275 289 294 292 293 296 295 296 295 292 296 297 290 289 290
215 230 240 245 230 219 257 280 281 284 309 96 137 145 149 154 137 221 277 264 141 151 189 231 274 288 287 297 301 292 288 290 303 36 51 1 337 346 339 329 318 302 291 284 281 281 281 272 258 248 230 220 212 195 188 184 184 205 232 245 256 267 268 262 257 247 238 244 256 259 260 267 278 284 283 285 292 295 295 294 291 293 292 283 285 288
193 209 216 235 240 226 241 267 272 267 267 161 144 143 143 146 166 247 276 131 121 149 195 216 259 280 276 278 281 279 289 304 324 360 12 333 319 324 323 324 323 309 295 284 267 262 267 264 253 244 234 229 221 204 197 195 196 211 230 243 251 261 264 257 249 244 242 246 254 255 253 260 271 278 280 284 291 295 297 295 288 287 288 279 277 282
181 195 207 233 245 229 229 255 271 271 242 168 156 146 137 149 203 251 288 77 105 183 194 212 254 272 265 266 270 277 306 328 328 328 325 307 303 308 309 311 311 301 293 284 267 259 259 253 245 243 240 234 223 207 200 203 209 218 226 234 245 253 256 249 241 240 242 245 251 248 244 253 268 276 277 281 286 293 299 299 288 281 280 278 276 276
178 186 203 230 245 242 241 258 272 279 160 136 140 138 146 178 232 282 47 60 37 227 197 215 250 263 253 257 267 279 299 312 303 299 301 297 298 302 304 305 303 299 296 282 263 258 257 252 246 243 239 231 219 210 205 207 215 222 224 228 238 244 243 239 236 235 239 246 251 247 240 244 261 272 275 276 283 292 299 301 294 281 272 272 278 276
180 190 210 209 215 238 245 242 262 288 126 136 136 137 178 217 301 16 24 226 208 217 220 229 245 253 250 253 263 270 279 288 290 292 294 292 293 295 297 302 304 303 302 293 276 260 250 255 257 249 240 229 219 214 209 208 215 223 224 226 231 232 229 229 231 234 240 245 250 247 239 240 253 264 267 269 278 290 296 301 300 285 267 261 263 266
180 206 238 206 187 216 232 216 230 358 136 159 165 171 206 218 257 338 297 256 214 212 234 253 254 248 244 251 262 270 275 281 288 292 292 292 294 296 298 301 302 302 303 301 296 276 250 255 264 258 247 234 222 218 213 210 214 221 224 225 224 219 218 221 225 233 240 244 246 243 236 239 250 258 260 264 276 287 298 306 303 286 264 250 249 256
187 211 296 278 201 226 261 267 3 68 136 179 207 255 233 220 231 255 262 269 263 235 234 261 272 259 234 242 257 266 272 281 289 291 293 296 299 302 303 304 305 306 302 297 297 284 258 258 264 262 254 241 227 222 218 215 217 221 223 224 220 214 214 215 218 226 233 240 240 235 233 241 251 257 261 264 272 285 302 312 305 284 254 234 235 243
193 174 311 292 225 241 270 267 252 243 210 199 218 244 246 231 227 225 239 255 263 257 248 255 272 271 237 233 247 261 272 283 288 287 291 297 300 303 305 306 310 311 304 298 299 291 273 266 263 259 256 248 234 226 222 219 220 223 223 221 217 214 214 213 214 218 225 231 232 228 230 242 249 249 250 256 267 284 304 313 303 281 249 228 227 229
188 181 212 239 231 236 258 246 231 240 242 225 229 240 240 237 235 232 240 249 257 262 258 251 261 266 245 232 242 260 278 284 283 286 295 300 301 305 308 310 314 313 308 305 305 299 286 276 267 261 260 256 243 232 228 224 224 225 225 219 215 213 212 211 212 215 219 223 225 224 227 236 247 249 243 244 258 279 301 313 298 271 248 227 222 225
170 175 215 234 231 238 256 259 248 244 240 231 237 243 240 241 243 240 240 246 253 260 256 247 248 251 241 234 239 252 270 279 282 290 297 299 301 306 311 313 314 313 310 308 305 301 294 285 279 274 270 267 257 242 233 230 229 227 223 218 215 212 210 210 211 214 219 221 221 224 225 227 236 246 244 241 252 279 305 321 295 266 258 253 255 258
120 165 211 233 238 246 259 262 256 251 243 228 225 231 236 242 247 243 236 239 247 253 252 245 238 234 235 242 247 249 261 274 285 291 294 297 301 307 312 315 314 311 310 310 306 298 293 289 287 283 277 274 269 254 241 238 237 230 221 218 215 210 208 210 210 213 219 221 220 222 224 225 230 237 240 242 245 261 292 314 292 264 256 266 273 277
175 223 221 216 239 251 260 263 258 261 268 255 225 228 235 239 243 242 236 236 242 247 246 240 231 223 228 240 247 248 258 273 285 289 287 291 300 308 311 311 309 308 309 310 307 299 292 286 283 282 281 280 275 262 250 246 243 235 224 218 214 209 207 208 209 213 218 221 221 221 219 224 230 230 232 240 242 240 255 282 272 243 225 218 218 210
212 238 231 226 249 263 276 283 277 266 279 290 281 250 237 230 235 239 239 244 246 243 241 241 236 231 231 232 231 235 252 268 276 280 282 288 299 305 305 302 303 306 308 307 306 302 299 294 287 282 282 282 278 268 260 254 249 242 231 221 214 210 207 207 209 214 217 218 220 219 217 222 228 225 225 233 238 240 244 243 227 220 220 220 220 218